EW4022 Weather Reports


Display with metric or nautical units.
time (UTC)temp
F
wind
direction
speed
MPH
gust
MPH
rain 1hr
in
rain 24hr
in
rain mn
in
humidity
%
barometer
mb
20260508172542 69 28 3.0 10.0 0.00 0.00 0.00 38 975.8
20260508172041 69 25 2.0 8.0 0.00 0.00 0.00 39 975.9
20260508171603 69 263 2.0 5.0 0.00 0.00 0.00 38 976.0
20260508171040 68 254 2.0 6.0 0.00 0.00 0.00 38 976.1
20260508170540 68 15 2.0 5.0 0.00 0.00 0.00 37 976.2
20260508170041 68 270 1.0 4.0 0.00 0.00 0.00 39 976.3
20260508165539 68 21 1.0 3.0 0.00 0.00 0.00 41 976.4
20260508165039 68 22 1.0 5.0 0.00 0.00 0.00 38 976.4
20260508164540 67 23 2.0 7.0 0.00 0.00 0.00 37 976.6
20260508164039 66 44 2.0 9.0 0.00 0.00 0.00 39 976.6
20260508163538 68 5 3.0 9.0 0.00 0.00 0.00 38 976.7
20260508163039 67 48 2.0 8.0 0.00 0.00 0.00 40 976.7
20260508162536 67 223 1.0 6.0 0.00 0.00 0.00 39 976.7
20260508162035 68 205 1.0 5.0 0.00 0.00 0.00 41 976.9
20260508161542 67 5 0.0 4.0 0.00 0.00 0.00 43 977.0
20260508161035 67 5 2.0 8.0 0.00 0.00 0.00 38 977.0
20260508160536 68 18 1.0 9.0 0.00 0.00 0.00 40 977.0
20260508160037 67 92 1.0 5.0 0.00 0.00 0.00 41 977.1
20260508155533 67 360 0.0 6.0 0.00 0.00 0.00 42 977.2
20260508155033 67 14 3.0 6.0 0.00 0.00 0.00 40 977.2
20260508154532 66 17 0.0 4.0 0.00 0.00 0.00 43 977.2
20260508154030 66 19 2.0 8.0 0.00 0.00 0.00 43 977.2
20260508153534 66 11 1.0 8.0 0.00 0.00 0.00 41 977.2
20260508153036 66 271 2.0 7.0 0.00 0.00 0.00 42 977.2
20260508152529 65 270 1.0 8.0 0.00 0.00 0.00 44 977.2
20260508152030 65 9 2.0 8.0 0.00 0.00 0.00 44 977.3
20260508151538 65 78 1.0 6.0 0.00 0.00 0.00 44 977.3
20260508151030 65 266 2.0 6.0 0.00 0.00 0.00 44 977.3
20260508150525 64 5 2.0 6.0 0.00 0.00 0.00 42 977.4
20260508150027 64 32 1.0 4.0 0.00 0.00 0.00 42 977.5
20260508145525 64 32 0.0 8.0 0.00 0.00 0.00 42 977.5
20260508145028 64 32 2.0 8.0 0.00 0.00 0.00 43 977.5
20260508144523 64 9 1.0 4.0 0.00 0.00 0.00 45 977.4
20260508144023 64 269 1.0 6.0 0.00 0.00 0.00 46 977.5
20260508143522 63 254 2.0 8.0 0.00 0.00 0.00 45 977.4
20260508143024 63 271 2.0 8.0 0.00 0.00 0.00 45 977.4
20260508142523 64 36 2.0 6.0 0.00 0.00 0.00 45 977.4
20260508142020 63 41 1.0 5.0 0.00 0.00 0.00 47 977.5
20260508141520 63 5 0.0 4.0 0.00 0.00 0.00 48 977.5
20260508141018 63 5 2.0 4.0 0.00 0.00 0.00 46 977.5
20260508140517 62 5 0.0 3.0 0.00 0.00 0.00 48 977.5
20260508140017 62 5 1.0 3.0 0.00 0.00 0.00 47 977.5
20260508135516 61 5 1.0 5.0 0.00 0.00 0.00 45 977.5
20260508135013 61 5 2.0 5.0 0.00 0.00 0.00 48 977.5
20260508134512 60 16 2.0 5.0 0.00 0.00 0.00 47 977.4
20260508134012 60 26 0.0 3.0 0.00 0.00 0.00 48 977.4
20260508133511 60 24 1.0 5.0 0.00 0.00 0.00 47 977.4
20260508133011 59 38 2.0 5.0 0.00 0.00 0.00 52 977.4
20260508132509 59 28 1.0 4.0 0.00 0.00 0.00 54 977.5
20260508132008 58 25 2.0 5.0 0.00 0.00 0.00 55 977.4
20260508131505 57 27 1.0 5.0 0.00 0.00 0.00 57 977.4
20260508131004 57 34 2.0 6.0 0.00 0.00 0.00 58 977.5
20260508130503 57 12 2.0 7.0 0.00 0.00 0.00 59 977.5
20260508130002 57 24 3.0 6.0 0.00 0.00 0.00 59 977.5
20260508125502 56 26 2.0 6.0 0.00 0.00 0.00 60 977.5
20260508125100 56 28 2.0 5.0 0.00 0.00 0.00 62 977.6
20260508124559 55 30 1.0 4.0 0.00 0.00 0.00 63 977.5
20260508124059 55 30 1.0 6.0 0.00 0.00 0.00 64 977.5
20260508123556 54 32 2.0 6.0 0.00 0.00 0.00 64 977.5
20260508123102 54 24 2.0 5.0 0.00 0.00 0.00 64 977.5
20260508122554 54 15 1.0 6.0 0.00 0.00 0.00 66 977.5
20260508122052 53 271 1.0 4.0 0.00 0.00 0.00 66 977.5
20260508121557 53 271 1.0 4.0 0.00 0.00 0.00 66 977.5
20260508121049 52 271 1.0 3.0 0.00 0.00 0.00 67 977.4
20260508120549 52 271 1.0 4.0 0.00 0.00 0.00 67 977.4
20260508120051 52 271 0.0 4.0 0.00 0.00 0.00 67 977.3
20260508115546 51 271 1.0 4.0 0.00 0.00 0.00 66 977.4
20260508115044 51 271 1.0 4.0 0.00 0.00 0.00 66 977.3
20260508114544 51 271 0.0 2.0 0.00 0.00 0.00 66 977.2
20260508114042 50 271 0.0 3.0 0.00 0.00 0.00 65 977.2
20260508113541 50 271 1.0 4.0 0.00 0.00 0.00 66 977.0
20260508113052 50 271 2.0 4.0 0.00 0.00 0.00 66 977.0
20260508112540 49 271 0.0 4.0 0.00 0.00 0.00 66 976.9
20260508112037 49 271 1.0 4.0 0.00 0.00 0.00 66 976.9
20260508111536 49 259 1.0 4.0 0.00 0.00 0.00 67 976.9
20260508111036 48 256 0.0 3.0 0.00 0.00 0.00 67 976.8
20260508110535 48 256 0.0 3.0 0.00 0.00 0.00 67 976.8
20260508110034 48 256 1.0 4.0 0.00 0.00 0.00 67 976.8
20260508105534 48 252 0.0 4.0 0.00 0.00 0.00 67 976.7
20260508105036 48 247 0.0 4.0 0.00 0.00 0.00 66 976.7
20260508104533 48 175 0.0 4.0 0.00 0.00 0.00 67 976.7
20260508104032 48 208 1.0 4.0 0.00 0.00 0.00 67 976.5
20260508103531 48 236 0.0 5.0 0.00 0.00 0.00 67 976.5
20260508103032 48 236 1.0 5.0 0.00 0.00 0.00 68 976.4
20260508102530 48 188 1.0 6.0 0.00 0.00 0.00 69 976.3
20260508102028 47 234 2.0 5.0 0.00 0.00 0.00 69 976.3
20260508101527 47 238 2.0 5.0 0.00 0.00 0.00 71 976.3
20260508101026 46 241 1.0 5.0 0.00 0.00 0.00 72 976.2
20260508100524 46 240 1.0 4.0 0.00 0.00 0.00 74 976.2
20260508100025 45 234 0.0 3.0 0.00 0.00 0.00 76 976.2
20260508095525 45 234 1.0 3.0 0.00 0.00 0.00 77 976.2
20260508095023 45 234 0.0 3.0 0.00 0.00 0.00 78 976.0
20260508094522 44 234 0.0 4.0 0.00 0.00 0.00 79 975.8
20260508094021 44 234 0.0 5.0 0.00 0.00 0.00 81 975.9
20260508093521 43 227 0.0 5.0 0.00 0.00 0.00 84 975.9
20260508093021 42 227 1.0 3.0 0.00 0.00 0.00 86 975.8
20260508092521 41 239 0.0 3.0 0.00 0.00 0.00 86 976.0
20260508092020 41 239 0.0 4.0 0.00 0.00 0.00 87 975.9
20260508091530 40 239 1.0 4.0 0.00 0.00 0.00 88 975.8
20260508091019 40 121 1.0 3.0 0.00 0.00 0.00 87 975.7
20260508090520 40 119 1.0 3.0 0.00 0.00 0.00 87 975.7
20260508090018 40 119 0.0 2.0 0.00 0.00 0.00 87 975.8
20260508085516 40 119 0.0 0.0 0.00 0.00 0.00 87 975.8
20260508085016 40 119 0.0 0.0 0.00 0.00 0.00 87 975.8
20260508084516 40 119 0.0 2.0 0.00 0.00 0.00 87 975.9
20260508084022 40 119 0.0 2.0 0.00 0.00 0.00 87 975.9
20260508083515 40 119 0.0 2.0 0.00 0.00 0.00 87 975.8
20260508083024 40 119 0.0 2.0 0.00 0.00 0.00 87 975.9
20260508082515 40 119 0.0 0.0 0.00 0.00 0.00 87 975.8
20260508082014 40 119 0.0 0.0 0.00 0.00 0.00 87 975.8
20260508081514 40 119 0.0 0.0 0.00 0.00 0.00 87 975.8
20260508081013 41 119 0.0 0.0 0.00 0.00 0.00 87 975.9
20260508080514 41 119 0.0 0.0 0.00 0.00 0.00 87 975.8
20260508080013 41 119 0.0 0.0 0.00 0.00 0.00 87 975.9
20260508075513 41 119 0.0 0.0 0.00 0.00 0.00 86 975.9
20260508075016 41 119 0.0 0.0 0.00 0.00 0.00 86 976.0
20260508074512 41 119 0.0 0.0 0.00 0.00 0.00 87 975.9
20260508074011 41 119 0.0 0.0 0.00 0.00 0.00 87 975.8
20260508073510 41 119 0.0 0.0 0.00 0.00 0.00 86 975.7
20260508073010 41 119 0.0 0.0 0.00 0.00 0.00 86 975.7
20260508072513 41 119 0.0 0.0 0.00 0.00 0.00 86 975.7
20260508072009 41 119 0.0 0.0 0.00 0.00 0.00 86 975.7
20260508071509 41 119 0.0 0.0 0.00 0.00 0.00 86 975.7
20260508071008 42 119 0.0 0.0 0.00 0.00 0.00 86 975.8
20260508070507 42 119 0.0 0.0 0.00 0.00 0.00 86 975.8
20260508070007 42 119 0.0 2.0 0.00 0.00 0.00 85 975.6
20260508065510 42 119 0.0 2.0 0.00 0.00 0.00 85 975.6
20260508065006 42 119 0.0 2.0 0.00 0.00 0.00 85 975.6
20260508064504 43 119 0.0 3.0 0.00 0.00 0.00 85 975.7
20260508064003 43 119 1.0 3.0 0.00 0.00 0.00 85 975.6
20260508063503 43 119 0.0 2.0 0.00 0.00 0.00 84 975.7
20260508063001 43 119 0.0 2.0 0.00 0.00 0.00 84 975.6
20260508062603 44 119 1.0 2.0 0.00 0.00 0.00 84 975.6
20260508062100 44 119 0.0 0.0 0.00 0.00 0.00 83 975.6
20260508061559 44 119 0.0 3.0 0.00 0.00 0.00 83 975.5
20260508061058 45 119 0.0 3.0 0.00 0.00 0.00 83 975.6
20260508060556 45 119 0.0 1.0 0.00 0.00 0.00 83 975.6
20260508060057 45 119 0.0 3.0 0.00 0.00 0.00 83 975.6
20260508055555 45 119 1.0 3.0 0.00 0.00 0.00 83 975.6
20260508055055 45 119 0.0 2.0 0.00 0.00 0.00 83 975.5
20260508054554 45 119 0.0 2.0 0.00 0.00 0.00 84 975.4
20260508054055 45 119 0.0 2.0 0.00 0.00 0.00 84 975.3
20260508053552 45 119 0.0 3.0 0.00 0.00 0.00 84 975.3
20260508053059 45 119 0.0 3.0 0.00 0.00 0.00 85 975.2
20260508052552 45 119 0.0 0.0 0.00 0.00 0.00 85 975.1
20260508052050 45 119 0.0 3.0 0.00 0.00 0.00 84 975.0
20260508051615 45 119 1.0 3.0 0.00 0.00 0.00 84 975.0
20260508051049 45 119 0.0 2.0 0.00 0.00 0.00 84 974.9
20260508050549 45 119 0.0 2.0 0.00 0.00 0.00 84 974.8
20260508050048 45 119 0.0 2.0 0.00 0.00 0.00 84 974.7
20260508045547 45 119 0.0 1.0 0.00 0.00 0.00 83 974.7
20260508045048 45 119 0.0 3.0 0.00 0.00 0.00 83 974.5
20260508044546 45 119 0.0 3.0 0.00 0.00 0.00 83 974.5
20260508044046 46 118 1.0 3.0 0.00 0.00 0.00 83 974.5
20260508043545 46 118 1.0 3.0 0.00 0.00 0.00 83 974.5
20260508043044 46 116 0.0 3.0 0.00 0.00 0.00 82 974.5
20260508042544 46 116 0.0 2.0 0.00 0.00 0.00 82 974.5
20260508042043 46 116 0.0 2.0 0.00 0.00 0.00 82 974.4
20260508041545 46 117 0.0 2.0 0.00 0.00 0.00 82 974.5
20260508041041 46 116 0.0 2.0 0.00 0.00 0.00 81 974.5
20260508040540 46 116 1.0 2.0 0.00 0.00 0.00 81 974.5
20260508040038 47 116 1.0 2.0 0.00 0.00 0.00 81 974.3
20260508035539 47 116 0.0 2.0 0.00 0.00 0.00 81 974.1
20260508035037 47 117 1.0 3.0 0.00 0.00 0.00 81 974.1
20260508034538 47 117 0.0 3.0 0.00 0.00 0.00 81 974.0
20260508034035 47 117 0.0 1.0 0.00 0.00 0.00 81 974.1
20260508033535 47 116 0.0 1.0 0.00 0.00 0.00 81 974.2
20260508033043 47 117 0.0 0.0 0.00 0.00 0.00 82 974.2
20260508032534 48 117 0.0 0.0 0.00 0.00 0.00 81 974.2
20260508032033 48 116 0.0 0.0 0.00 0.00 0.00 81 974.1
20260508031532 48 117 0.0 0.0 0.00 0.00 0.00 81 974.0
20260508031031 48 117 0.0 0.0 0.00 0.00 0.00 81 973.9
20260508030534 48 116 0.0 0.0 0.00 0.00 0.00 81 973.9
20260508030030 48 116 0.0 0.0 0.00 0.00 0.00 81 973.9
20260508025532 49 116 0.0 2.0 0.00 0.04 0.00 81 973.8
20260508025028 49 117 0.0 2.0 0.00 0.04 0.00 80 973.8
20260508024531 49 116 1.0 2.0 0.00 0.04 0.00 80 973.8
20260508024026 49 117 0.0 2.0 0.00 0.04 0.00 79 973.7
20260508023525 50 117 0.0 2.0 0.00 0.04 0.00 79 973.7
20260508023030 50 116 1.0 2.0 0.00 0.04 0.00 79 973.7
20260508022523 50 117 0.0 2.0 0.00 0.04 0.00 78 973.6
20260508022022 50 116 0.0 2.0 0.00 0.04 0.00 78 973.4
20260508021530 50 116 0.0 1.0 0.00 0.04 0.00 77 973.4
20260508021027 51 117 0.0 2.0 0.00 0.04 0.00 77 973.3
20260508020518 51 117 0.0 3.0 0.00 0.04 0.00 77 973.2
20260508020018 51 116 1.0 3.0 0.00 0.04 0.00 77 973.1
20260508015517 51 117 0.0 2.0 0.00 0.05 0.00 77 972.9
20260508015016 51 117 0.0 2.0 0.00 0.05 0.00 76 972.9
20260508014516 52 116 0.0 3.0 0.00 0.05 0.00 76 972.8
20260508014015 52 116 1.0 3.0 0.00 0.05 0.00 75 972.7
20260508013513 52 116 0.0 3.0 0.00 0.05 0.00 75 972.6
20260508013013 52 116 0.0 3.0 0.00 0.05 0.00 74 972.7
20260508012511 53 116 1.0 3.0 0.00 0.05 0.00 73 972.6
20260508012010 53 116 0.0 1.0 0.00 0.05 0.00 72 972.4
20260508011509 53 116 0.0 2.0 0.00 0.05 0.00 72 972.4
20260508011008 54 116 0.0 2.0 0.00 0.05 0.00 71 972.3
20260508010507 54 116 0.0 2.0 0.00 0.05 0.00 71 972.2
20260508010013 54 116 0.0 3.0 0.00 0.05 0.00 70 972.2
20260508005505 54 116 0.0 2.0 0.00 0.05 0.00 69 972.1
20260508005005 55 116 0.0 1.0 0.00 0.05 0.00 68 971.9
20260508004503 55 116 0.0 2.0 0.00 0.05 0.00 68 971.9
20260508004003 56 116 0.0 2.0 0.00 0.05 0.00 66 972.0
20260508003501 56 116 0.0 2.0 0.00 0.05 0.00 66 971.9
20260508003117 57 116 0.0 2.0 0.00 0.05 0.00 64 972.0
20260508002558 58 116 0.0 1.0 0.00 0.05 0.00 62 972.0
20260508002057 59 116 0.0 0.0 0.00 0.05 0.00 61 971.9
20260508001600 60 116 0.0 9.0 0.00 0.05 0.00 60 971.8
20260508001057 60 116 0.0 9.0 0.00 0.05 0.00 57 971.7
20260508000557 60 50 0.0 2.0 0.00 0.05 0.00 57 971.8
20260508000056 60 50 1.0 6.0 0.00 0.05 0.00 57 971.7
20260507235556 60 50 2.0 6.0 0.00 0.05 0.00 56 971.6
20260507235056 60 11 1.0 7.0 0.00 0.05 0.00 57 971.6
20260507234556 60 35 1.0 5.0 0.00 0.05 0.00 58 971.5
20260507234055 60 36 2.0 5.0 0.00 0.05 0.00 58 971.5
20260507233555 60 249 0.0 3.0 0.00 0.05 0.00 63 971.4
20260507233055 61 249 0.0 3.0 0.00 0.05 0.00 63 971.4
20260507232554 61 249 1.0 3.0 0.00 0.05 0.00 61 971.3
20260507232054 62 249 0.0 1.0 0.00 0.05 0.00 61 971.2
20260507231556 62 249 0.0 3.0 0.00 0.05 0.00 59 971.1
20260507231054 62 249 0.0 7.0 0.00 0.05 0.00 57 971.1
20260507230554 62 274 1.0 6.0 0.00 0.05 0.00 56 970.9
20260507230110 62 227 2.0 7.0 0.00 0.05 0.00 55 970.9
20260507225554 62 187 1.0 7.0 0.00 0.05 0.00 54 970.9
20260507225054 62 271 2.0 6.0 0.00 0.05 0.00 55 970.8
20260507224554 63 271 0.0 7.0 0.00 0.05 0.00 56 970.9
20260507224053 63 270 1.0 7.0 0.00 0.05 0.00 54 970.8
20260507223553 63 192 2.0 7.0 0.00 0.05 0.00 55 970.8
20260507223155 63 128 3.0 7.0 0.00 0.05 0.00 54 970.8
20260507222553 64 200 1.0 7.0 0.00 0.05 0.00 54 970.8
20260507222052 64 194 2.0 7.0 0.00 0.05 0.00 56 970.8
20260507221552 64 16 1.0 5.0 0.00 0.05 0.00 55 970.6
20260507221051 64 225 0.0 6.0 0.00 0.05 0.00 54 970.5
20260507220551 65 207 1.0 6.0 0.00 0.05 0.00 56 970.5
20260507220052 65 207 1.0 9.0 0.00 0.05 0.00 55 970.4
20260507215553 65 248 1.0 9.0 0.00 0.05 0.00 54 970.3
20260507215050 66 265 0.0 4.0 0.00 0.05 0.00 55 970.3
20260507214557 66 271 1.0 7.0 0.00 0.05 0.00 56 970.2
20260507214051 66 44 2.0 8.0 0.00 0.05 0.00 54 970.1
20260507213551 66 200 2.0 8.0 0.00 0.05 0.00 56 970.1
20260507213114 66 199 3.0 6.0 0.00 0.05 0.00 54 970.1
20260507212554 66 54 1.0 6.0 0.00 0.05 0.00 56 970.1
20260507212049 66 198 1.0 7.0 0.00 0.05 0.00 56 970.1
20260507211549 65 238 0.0 7.0 0.00 0.05 0.00 58 970.1
20260507211048 64 273 0.0 7.0 0.00 0.05 0.00 59 970.2
20260507210549 64 21 0.0 10.0 0.00 0.05 0.00 61 970.1
20260507210049 64 248 3.0 10.0 0.00 0.05 0.00 61 970.0
20260507205546 65 9 0.0 2.0 0.00 0.05 0.00 68 970.0
20260507205047 64 10 0.0 2.0 0.00 0.05 0.00 67 969.9
20260507204547 63 9 0.0 2.0 0.00 0.05 0.00 69 969.9
20260507204044 63 9 0.0 4.0 0.00 0.05 0.00 69 969.9
20260507203544 62 9 0.0 4.0 0.00 0.05 0.00 70 969.8
20260507203044 62 9 1.0 4.0 0.00 0.05 0.00 70 969.9
20260507202544 62 9 0.0 3.0 0.00 0.05 0.00 70 969.9
20260507202048 62 9 1.0 5.0 0.00 0.05 0.00 70 969.9
20260507201549 62 9 1.0 6.0 0.00 0.05 0.00 70 969.9
20260507201042 62 175 0.0 6.0 0.00 0.05 0.00 68 969.9
20260507200542 63 13 1.0 5.0 0.00 0.05 0.00 67 970.1
20260507200053 63 13 2.0 9.0 0.00 0.05 0.00 68 970.1
20260507195540 63 16 2.0 12.0 0.00 0.05 0.00 69 970.2
20260507195040 63 24 2.0 6.0 0.00 0.05 0.00 67 970.4
20260507194540 63 22 2.0 6.0 0.00 0.05 0.00 68 970.5
20260507194039 63 5 1.0 4.0 0.00 0.05 0.00 69 970.6
20260507193540 62 5 0.0 4.0 0.00 0.05 0.00 68 970.7
20260507193045 62 30 1.0 4.0 0.00 0.05 0.00 69 970.8
20260507192542 61 30 1.0 4.0 0.00 0.05 0.00 69 970.9
20260507192038 61 274 0.0 4.0 0.00 0.05 0.00 70 971.0
20260507191538 61 274 0.0 3.0 0.00 0.05 0.00 70 971.1
20260507191042 61 274 0.0 3.0 0.00 0.05 0.00 71 971.2
20260507190537 60 274 0.0 4.0 0.00 0.05 0.00 71 971.0
20260507190039 60 275 1.0 4.0 0.00 0.05 0.00 71 971.1
20260507185536 60 273 1.0 4.0 0.00 0.05 0.00 72 971.4
20260507185037 60 275 1.0 3.0 0.00 0.05 0.00 73 971.4
20260507184537 60 275 0.0 3.0 0.00 0.05 0.00 73 971.5
20260507184036 59 275 0.0 4.0 0.00 0.05 0.00 74 971.5
20260507183539 59 275 1.0 3.0 0.00 0.05 0.00 74 971.6
20260507183039 59 275 0.0 2.0 0.00 0.05 0.00 76 971.6
20260507182535 59 275 0.0 3.0 0.00 0.05 0.00 76 971.6
20260507182035 59 275 0.0 3.0 0.00 0.05 0.00 76 971.5
20260507181535 59 274 0.0 4.0 0.00 0.05 0.00 76 971.5
20260507181034 59 274 0.0 4.0 0.00 0.05 0.00 75 971.6
20260507180535 59 274 1.0 4.0 0.00 0.05 0.00 74 971.6
20260507180035 59 360 1.0 4.0 0.00 0.05 0.00 75 971.5
20260507175533 60 246 0.0 3.0 0.00 0.05 0.00 75 971.5
20260507175033 60 245 0.0 3.0 0.00 0.05 0.00 75 971.6
20260507174544 60 248 0.0 2.0 0.00 0.05 0.00 74 971.6
20260507174034 60 248 0.0 2.0 0.00 0.05 0.00 76 971.7
20260507173532 59 248 0.0 3.0 0.00 0.05 0.00 77 971.5
20260507173036 59 248 0.0 3.0 0.00 0.05 0.00 76 971.6